Weather Roundup
Issued by NWS

Home | Current Version | Previous Version | Graphics & Text | Print | Product List | Glossary Off
Versions: 1 2 3 4 5 6 7 8 9 10 11 12 13 14 15 16 17 18 19 20 21 22 23 24 25 26 27 28 29 30 31 32 33 34 35 36 37 38 39 40 41 42 43 44 45 46 47 48 49 50

000
NZUS93 KARX 172359
HRRWXR

CURRENT HOURLY OBSERVATIONS ACROSS
MUCH OF THE UPPER MISSISSIPPI VALLEY
NATIONAL WEATHER SERVICE LA CROSSE WI
700 PM CDT FRI APR 17 2015


...SOUTHEAST MINNESOTA...


CITY           SKY/WX    TMP DP  RH WIND       PRES   REMARKS
ROCHESTER      CLEAR     71  46  40 NW9       30.01S
ROCHESTER/MAYO FAIR      73  43  33 W10       30.00S
WINONA         PTCLDY    73  46  38 NW7       29.98S
AUSTIN         PTCLDY    72  43  35 NW8       30.00F
ALBERT LEA     PTCLDY    73  39  29 W6        30.01S
DODGE CENTER   CLEAR     72  43  35 NW7       30.01S
PRESTON        CLEAR     70  44  40 NW3       30.01S
OWATONNA       CLEAR     72  37  28 W6        30.01S
FARIBAULT      CLEAR     73  37  27 NW8       30.01S
$$

...ELSEWHERE IN MINNESOTA...


CITY           SKY/WX    TMP DP  RH WIND       PRES   REMARKS
MINNEAPOLIS    PTCLDY    72  31  22 W8        30.01S
INTNL FALLS    SUNNY     62  21  20 N22G32    30.00R
DULUTH         CLEAR     70  19  14 NW13G24   29.98R
RED WING       CLEAR     73  34  23 NW5       29.99R
REDWOOD FALLS  SUNNY     74  22  14 NW9       30.02F
MANKATO        SUNNY     73  37  27 N9        30.01S
WORTHINGTON    PTSUNNY   72  36  26 N10       30.04S
FAIRMONT       PTSUNNY   73  37  27 NW9       30.01S
$$

...SOUTHWEST WISCONSIN...


CITY           SKY/WX    TMP DP  RH WIND       PRES   REMARKS
LA CROSSE      CLEAR     76  45  33 NW6       29.97S
PRAIRIE DU CHI PTCLDY    76  41  28 W6        29.97S
BOSCOBEL       PTCLDY    76  43  30 NW5       29.97F
LONE ROCK      NOT AVBL
PLATTEVILLE    MOCLDY    76  45  33 W6        29.99S
FORT MC COY    PTCLDY    75  38  25 W7        29.99R
VIROQUA        FAIR      72  42  33 NW9       30.00S
WIS DELLS      CLEAR     74  39  27 W8        29.97F
$$

...ELSEWHERE IN WISCONSIN...


CITY           SKY/WX    TMP DP  RH WIND       PRES   REMARKS
MILWAUKEE      MOCLDY    54  40  59 E5        30.00F HAZE
MADISON        PTCLDY    76  43  30 NW3       29.97S
GREEN BAY      CLEAR     67  44  43 S13       29.96S
EAU CLAIRE     CLEAR     71  36  27 NW9       29.99S
BLACK RVR FLS  FAIR      76  38  26 NW7       29.97F
MEDFORD        CLEAR     69  40  34 W6        29.98S
WAUSAU         CLEAR     70  40  33 W10       29.95F
WIS RAPIDS     CLEAR     74  37  26 NW7       29.98S
MARSHFIELD     CLEAR     71  42  35 W8        29.98S
RICE LAKE      CLEAR     71  30  22 W10       30.01S
$$

...NORTHEAST IOWA...


CITY           SKY/WX    TMP DP  RH WIND       PRES   REMARKS
DECORAH        PTCLDY    75  41  29 NW9       29.99S
MASON CITY     MOCLDY    71  46  40 NW6       30.02S
CHARLES CITY   MOCLDY    73  43  33 NW8       30.01S
OELWEIN        MOCLDY    75  46  35 N5        30.00S
$$

...ELSEWHERE IN IOWA...


CITY           SKY/WX    TMP DP  RH WIND       PRES   REMARKS
DES MOINES     MOCLDY    76  50  40 S5        29.98F
IOWA CITY      PTCLDY    75  50  41 SW3       29.99S
FORT DODGE     CLOUDY    73  45  35 N5        30.00F
$$

...NORTHERN ILLINOIS...


CITY           SKY/WX    TMP DP  RH WIND       PRES   REMARKS
CHICAGO-OHARE  CLOUDY    74  46  36 W7        29.98S
CHICAGO-MIDWAY MOCLDY    73  46  38 E8        29.99S
MOLINE         CLEAR     75  47  36 SW3       29.96F
ROCKFORD       MOCLDY    74  47  38 W5        30.00F
PEORIA         CLEAR     79  51  37 CALM      29.98F
$$

NOTE: "FAIR" INDICATES FEW OR NO CLOUDS BELOW 12,000 FEET WITH NO
SIGNIFICANT WEATHER AND/OR OBSTRUCTIONS TO VISIBILITY. WIND
SPEEDS ARE IN MILES-PER-HOUR.



USA.gov is the U.S. government's official web portal to all federal, state and local government web resources and services.